Weather History for KAUM - May, 2013

Change the Weather History Date:

Thursday, May 2, 2013

  Actual Average Record
Temperature  
Mean Temperature 34 °F -  
Max Temperature 35 °F 62 °F 78 °F (2012)
Min Temperature 33 °F 42 °F 28 °F (2005)
Degree Days  
Heating Degree Days 31    
Moisture  
Dew Point 31 °F    
Average Humidity 86    
Maximum Humidity 93    
Minimum Humidity 75    
Precipitation  
Precipitation 0.61 in - - ()
Sea Level Pressure  
Sea Level Pressure 30.41 in    
Wind  
Wind Speed 13 mph (North)    
Max Wind Speed 17 mph    
Max Gust Speed 32 mph    
Visibility 4 miles    
Events Snow , Thunderstorm    
Averages and records for this station are not official NWS values.
T = Trace of Precipitation, MM = Missing Value Source: NWS Daily Summary

Daily Weather History Graph

Daily Weather History Graph

Search for Another Location

Airport or City:

Trip Planner

Search our weather history database for the weather conditions in past years. The results will help you decide how hot, cold, wet, or windy it might be!

Date:

Astronomy

May. 02, 2013 Rise Set
Actual Time 6:02 AM CDT 8:15 PM CDT
Civil Twilight 5:30 AM CDT 8:47 PM CDT
Nautical Twilight 4:51 AM CDT 9:26 PM CDT
Astronomical Twilight 4:08 AM CDT 10:10 PM CDT
Moon 2:03 AM CDT (5/2) 12:52 PM CDT (5/2)
Length of Visible Light 15h 16m
Length of Day
14h 13m
Waning Gibbous, 47% of the Moon is Illuminated
May 2
Waning Gibbous
May 9
New
May 17
First Quarter
May 24
Full
May 31
Last Quarter

Hourly Weather History & Observations

Time (CDT) Temp. Windchill Dew Point Humidity Pressure Visibility Wind Dir Wind Speed Gust Speed Precip Events Conditions
12:16 AM 33.8 °F 23.2 °F 32.0 °F 93% 30.40 in 2.5 mi North 17.3 mph 25.3 mph 0.06 in Snow Snow
12:35 AM 33.8 °F 24.8 °F 32.0 °F 93% 30.42 in 2.5 mi North 12.7 mph 24.2 mph 0.12 in Snow Light Snow
12:56 AM 33.8 °F 24.8 °F 32.0 °F 93% 30.42 in 2.0 mi North 12.7 mph 19.6 mph 0.01 in Snow Light Snow
1:16 AM 33.8 °F 23.9 °F 32.0 °F 93% 30.40 in 2.0 mi North 15.0 mph 21.9 mph 0.04 in Snow Light Snow
1:35 AM 33.8 °F 25.3 °F 32.0 °F 93% 30.41 in 1.8 mi North 11.5 mph 21.9 mph 0.07 in Snow Light Snow
1:56 AM 33.8 °F 23.9 °F 32.0 °F 93% 30.40 in 1.8 mi North 15.0 mph - N/A   Overcast
2:16 AM 33.8 °F 23.2 °F 32.0 °F 93% 30.39 in 1.8 mi North 17.3 mph 23.0 mph 0.06 in   Overcast
2:35 AM 33.8 °F 23.2 °F 32.0 °F 93% 30.39 in 1.2 mi North 17.3 mph 26.5 mph 0.08 in Snow Light Snow
2:56 AM 33.8 °F 23.9 °F 32.0 °F 93% 30.40 in 0.8 mi North 15.0 mph 26.5 mph N/A Snow Snow
3:16 AM 33.8 °F 23.9 °F 32.0 °F 93% 30.38 in 0.5 mi North 15.0 mph 23.0 mph 0.03 in Snow Snow
3:35 AM 33.8 °F 24.3 °F 30.2 °F 87% 30.40 in 0.5 mi North 13.8 mph 23.0 mph 0.05 in Snow Heavy Snow
3:56 AM 33.8 °F 24.3 °F 32.0 °F 93% 30.41 in 0.2 mi North 13.8 mph 20.7 mph N/A Snow Heavy Snow
4:16 AM 33.8 °F 24.8 °F 32.0 °F 93% 30.42 in 0.5 mi North 12.7 mph 21.9 mph 0.06 in Snow Heavy Snow
4:35 AM 33.8 °F 24.8 °F 32.0 °F 93% 30.41 in 0.5 mi North 12.7 mph 21.9 mph 0.10 in Snow Snow
4:56 AM 33.8 °F 23.9 °F 32.0 °F 93% 30.41 in 0.5 mi North 15.0 mph 20.7 mph N/A Snow , Thunderstorm Snow
5:15 AM 33.8 °F 24.8 °F 30.2 °F 87% 30.41 in 0.8 mi North 12.7 mph 18.4 mph 0.04 in Snow Snow
5:35 AM 33.8 °F 24.8 °F 30.2 °F 87% 30.41 in 0.5 mi North 12.7 mph 20.7 mph 0.09 in Snow Snow
5:55 AM 33.8 °F 23.9 °F 30.2 °F 87% 30.39 in 0.5 mi North 15.0 mph 21.9 mph 0.12 in Snow Heavy Snow
6:15 AM 33.8 °F 24.8 °F 30.2 °F 87% 30.41 in 0.5 mi North 12.7 mph 25.3 mph 0.03 in Snow Heavy Snow
6:36 AM 33.8 °F 23.2 °F 30.2 °F 87% 30.42 in 0.5 mi North 17.3 mph 32.2 mph 0.08 in Snow Snow
6:55 AM 33.8 °F 23.5 °F 30.2 °F 87% 30.41 in 0.2 mi North 16.1 mph 25.3 mph 0.11 in Snow Snow
7:15 AM 33.8 °F 24.3 °F 30.2 °F 87% 30.44 in 0.2 mi North 13.8 mph 25.3 mph 0.02 in Snow Snow
7:36 AM 33.8 °F 23.9 °F 30.2 °F 87% 30.44 in 0.2 mi North 15.0 mph 21.9 mph 0.04 in Snow Snow
7:55 AM 33.8 °F 24.3 °F 30.2 °F 87% 30.44 in 0.5 mi North 13.8 mph 28.8 mph 0.05 in Snow Snow
8:15 AM 33.8 °F 24.3 °F 30.2 °F 87% 30.45 in 0.2 mi North 13.8 mph 24.2 mph 0.01 in Snow Snow
8:36 AM 33.8 °F 24.3 °F 30.2 °F 87% 30.45 in 0.5 mi North 13.8 mph 21.9 mph 0.02 in Snow Light Snow
8:55 AM 33.8 °F 24.3 °F 30.2 °F 87% 30.44 in 0.5 mi North 13.8 mph 23.0 mph 0.02 in Snow Light Snow
9:15 AM 33.8 °F 24.3 °F 30.2 °F 87% 30.44 in 1.0 mi North 13.8 mph 20.7 mph N/A Snow Light Snow
9:36 AM 33.8 °F 24.8 °F 30.2 °F 87% 30.44 in 1.2 mi North 12.7 mph 24.2 mph N/A Snow Light Snow
9:55 AM 33.8 °F 24.8 °F 30.2 °F 87% 30.43 in 0.8 mi North 12.7 mph 23.0 mph N/A Snow Light Snow
10:15 AM 33.8 °F 25.3 °F 30.2 °F 87% 30.44 in 0.8 mi North 11.5 mph 27.6 mph N/A Snow Light Snow
10:36 AM 33.8 °F 24.3 °F 30.2 °F 87% 30.45 in 0.8 mi North 13.8 mph 23.0 mph N/A Snow Light Snow
10:55 AM 33.8 °F 24.3 °F 30.2 °F 87% 30.45 in 1.0 mi North 13.8 mph 21.9 mph N/A Snow Light Snow
11:15 AM 33.8 °F 24.8 °F 30.2 °F 87% 30.45 in 1.5 mi North 12.7 mph 21.9 mph N/A Snow Light Snow
11:36 AM 35.6 °F 26.6 °F 30.2 °F 81% 30.44 in 2.0 mi North 13.8 mph 21.9 mph N/A Snow Light Snow
11:55 AM 35.6 °F 26.2 °F 28.4 °F 75% 30.44 in 4.0 mi North 15.0 mph 21.9 mph N/A Snow Light Snow
12:16 PM 35.6 °F 27.5 °F 28.4 °F 75% 30.45 in 3.0 mi North 11.5 mph 19.6 mph N/A Snow Light Snow
12:36 PM 35.6 °F 27.5 °F 30.2 °F 81% 30.45 in 7.0 mi North 11.5 mph 19.6 mph N/A   Scattered Clouds
12:55 PM 35.6 °F 28.0 °F 30.2 °F 81% 30.45 in 7.0 mi North 10.4 mph - N/A   Mostly Cloudy
1:16 PM 35.6 °F 27.1 °F 30.2 °F 81% 30.44 in 1.2 mi North 12.7 mph 19.6 mph N/A Snow Light Snow
1:36 PM 35.6 °F 26.6 °F 30.2 °F 81% 30.44 in 1.8 mi North 13.8 mph 24.2 mph N/A Snow Light Snow
1:55 PM 35.6 °F 26.2 °F 30.2 °F 81% 30.43 in 1.8 mi North 15.0 mph 21.9 mph N/A Snow Light Snow
2:16 PM 35.6 °F 27.5 °F 30.2 °F 81% 30.43 in 1.2 mi North 11.5 mph 17.3 mph N/A Snow Light Snow
2:36 PM 35.6 °F 28.0 °F 30.2 °F 81% 30.43 in 0.8 mi North 10.4 mph 17.3 mph N/A Snow Light Snow
2:55 PM 35.6 °F 28.6 °F 30.2 °F 81% 30.43 in 1.2 mi North 9.2 mph - N/A Snow Light Snow
3:16 PM 35.6 °F 29.2 °F 30.2 °F 81% 30.43 in 2.5 mi North 8.1 mph - N/A Snow Light Snow
3:36 PM 35.6 °F 28.0 °F 30.2 °F 81% 30.43 in 1.2 mi North 10.4 mph - N/A Snow Light Snow
3:55 PM 35.6 °F 28.0 °F 30.2 °F 81% 30.42 in 1.8 mi NNE 10.4 mph - N/A Snow Light Snow
4:16 PM 35.6 °F 29.2 °F 30.2 °F 81% 30.42 in 4.0 mi North 8.1 mph - N/A   Haze
4:35 PM 35.6 °F 28.0 °F 32.0 °F 87% 30.41 in 5.0 mi NNE 10.4 mph 16.1 mph N/A Snow Light Snow
4:56 PM 35.6 °F 27.5 °F 30.2 °F 81% 30.40 in 10.0 mi NNE 11.5 mph - N/A   Scattered Clouds
5:15 PM 35.6 °F 28.0 °F 30.2 °F 81% 30.40 in 10.0 mi NNE 10.4 mph - N/A   Scattered Clouds
5:36 PM 35.6 °F 28.0 °F 30.2 °F 81% 30.39 in 10.0 mi NNE 10.4 mph 17.3 mph N/A   Clear
5:56 PM 35.6 °F 27.5 °F 30.2 °F 81% 30.38 in 10.0 mi NNE 11.5 mph - N/A   Clear
6:15 PM 35.6 °F 28.0 °F 30.2 °F 81% 30.39 in 10.0 mi NNE 10.4 mph - N/A   Clear
6:36 PM 35.6 °F 28.0 °F 30.2 °F 81% 30.39 in 10.0 mi NNE 10.4 mph 16.1 mph N/A   Clear
6:56 PM 35.6 °F 28.0 °F 30.2 °F 81% 30.38 in 10.0 mi NNE 10.4 mph - N/A   Clear
7:15 PM 35.6 °F 29.2 °F 30.2 °F 81% 30.39 in 10.0 mi North 8.1 mph - N/A   Scattered Clouds
7:36 PM 33.8 °F 27.7 °F 30.2 °F 87% 30.38 in 10.0 mi North 6.9 mph - N/A   Scattered Clouds
7:56 PM 33.8 °F 27.7 °F 30.2 °F 87% 30.38 in 10.0 mi North 6.9 mph - N/A   Mostly Cloudy
8:15 PM 33.8 °F 28.6 °F 30.2 °F 87% 30.38 in 10.0 mi NNE 5.8 mph - N/A   Mostly Cloudy
8:36 PM 33.8 °F 27.0 °F 30.2 °F 87% 30.38 in 10.0 mi NNE 8.1 mph - N/A   Overcast
8:56 PM 33.8 °F 27.7 °F 30.2 °F 87% 30.39 in 10.0 mi NNE 6.9 mph - N/A   Overcast
9:15 PM 35.6 °F 28.0 °F 30.2 °F 81% 30.39 in 10.0 mi NNE 10.4 mph - N/A   Overcast
9:35 PM 33.8 °F 27.7 °F 30.2 °F 87% 30.39 in 7.0 mi NNE 6.9 mph - N/A Snow Light Snow
9:56 PM 33.8 °F 27.0 °F 30.2 °F 87% 30.39 in 7.0 mi NNE 8.1 mph - N/A Snow Light Snow
10:15 PM 33.8 °F 26.4 °F 30.2 °F 87% 30.38 in 10.0 mi NE 9.2 mph - N/A   Overcast
10:36 PM 33.8 °F 27.0 °F 30.2 °F 87% 30.37 in 5.0 mi NNE 8.1 mph - N/A Snow Light Snow
10:56 PM 33.8 °F 27.7 °F 30.2 °F 87% 30.36 in 4.0 mi NNE 6.9 mph - N/A Snow Light Snow
11:15 PM 33.8 °F 27.0 °F 30.2 °F 87% 30.36 in 7.0 mi NNE 8.1 mph - N/A Snow Light Snow
11:36 PM 33.8 °F 26.4 °F 30.2 °F 87% 30.35 in 7.0 mi NNE 9.2 mph - N/A Snow Light Snow
11:56 PM 33.8 °F 26.4 °F 30.2 °F 87% 30.36 in 10.0 mi NNE 9.2 mph - N/A   Overcast